Tracking 28794 objects as of 19-Apr-2024
HD Live streaming from Space Station
objects crossing your sky now

FENGYUN 1C DEB

Track FENGYUN 1C DEB now!
10-day predictions


NORAD ID: 32162
Int'l Code: 1999-025CTG
Perigee: 696.7 km
Apogee: 782.3 km
Inclination: 99.5 °
Period: 99.5 minutes
Semi major axis: 7110 km
RCS: 0.0136 m2 (small)
Launch date: May 10, 1999
Source: People's Republic of China (PRC)
Launch site: Taiyaun Space Center, China (TSC)

Note: This is SATELLITE DEBRIS
Your satellite tracking list
Your tracking list is empty




NASA's NSSDC Master Catalog

Two Line Element Set (TLE):
1 32162U 99025CTG 24107.63415360  .00014465  00000-0  38178-2 0  9990
2 32162  99.4594  65.5792 0060202 175.3248 184.8516 14.47950683861139
Source of the keplerian elements: AFSPC